Bedford, MA

9:26 PM EDT on July 22, 2017 (GMT -0400)
Hanscom

Weather History for KBED - February, 2014

Change the Weather History Date:

Wednesday, February 19, 2014

  Actual Average Record
Temperature  
Mean Temperature 22 °F -  
Max Temperature 33 °F 40 °F 66 °F (1961)
Min Temperature 10 °F 21 °F 0 °F (1958)
Degree Days  
Heating Degree Days 44    
Moisture  
Dew Point 23 °F    
Average Humidity 93    
Maximum Humidity 100    
Minimum Humidity 70    
Precipitation  
Precipitation 0.15 in - - ()
Sea Level Pressure  
Sea Level Pressure 29.91 in    
Wind  
Wind Speed 4 mph (NNW)    
Max Wind Speed 10 mph    
Max Gust Speed -    
Visibility 4 miles    
Events Fog , Rain , Snow    
Averages and records for this station are not official NWS values.
T = Trace of Precipitation, MM = Missing Value Source: NWS Daily Summary

Daily Weather History Graph

Daily Weather History Graph

Search for Another Location

Airport or City:

Trip Planner

Search our weather history database for the weather conditions in past years. The results will help you decide how hot, cold, wet, or windy it might be!

Date:

Astronomy

Feb. 19, 2014 Rise Set
Actual Time 6:36 AM EST 5:22 PM EST
Civil Twilight 6:07 AM EST 5:51 PM EST
Nautical Twilight 5:34 AM EST 6:23 PM EST
Astronomical Twilight 5:02 AM EST 6:56 PM EST
Moon 10:19 PM EST (2/19) 8:34 AM EST (2/19)
Length of Visible Light 11h 43m
Length of Day
10h 46m
Waning Gibbous, 80% of the Moon is Illuminated
Feb 19
Waning Gibbous
Feb 22
Last Quarter
Mar 1
New
Mar 8
First Quarter
Mar 16
Full

Hourly Weather History & Observations

Time (EST) Temp. Windchill Dew Point Humidity Pressure Visibility Wind Dir Wind Speed Gust Speed Precip Events Conditions
12:56 AM 19.9 °F 13.4 °F 17.1 °F 89% 30.09 in 10.0 mi WSW 4.6 mph - N/A   Clear
1:56 AM 12.9 °F - 12.0 °F 96% 30.09 in 3.0 mi Calm Calm - N/A   Clear
2:03 AM 15.8 °F 10.2 °F 14.0 °F 93% 30.05 in 2.5 mi WSW 3.5 mph - N/A   Clear
2:10 AM 10.4 °F 0.8 °F 10.4 °F 100% 30.05 in 4.0 mi SW 5.8 mph - N/A   Clear
2:56 AM 18.0 °F 9.8 °F 16.0 °F 92% 30.14 in 10.0 mi SW 5.8 mph - N/A   Clear
3:56 AM 21.0 °F 14.6 °F 17.1 °F 85% 30.13 in 10.0 mi WSW 4.6 mph - N/A   Clear
4:56 AM 14.0 °F - 12.0 °F 92% 30.12 in 10.0 mi Calm Calm - N/A   Clear
5:31 AM 14.0 °F - 12.2 °F 93% 30.06 in 1.8 mi Calm Calm - N/A   Clear
5:38 AM 15.8 °F - 12.2 °F 86% 30.06 in 1.5 mi Calm Calm - N/A   Partly Cloudy
5:47 AM 12.2 °F - 10.4 °F 92% 30.05 in 3.0 mi Calm Calm - N/A   Clear
5:56 AM 12.9 °F - 12.0 °F 96% 30.11 in 6.0 mi Calm Calm - N/A   Clear
6:18 AM 12.2 °F - 12.2 °F 100% 30.05 in 1.5 mi Calm Calm - N/A   Clear
6:24 AM 10.4 °F - 10.4 °F 100% 30.04 in 0.2 mi Calm Calm - N/A Fog Light Freezing Fog
6:34 AM 10.4 °F - 8.6 °F 92% 30.03 in 1.5 mi Calm Calm - N/A   Clear
6:41 AM 10.4 °F - 10.4 °F 100% 30.02 in 0.2 mi Calm Calm - N/A Fog Light Freezing Fog
6:53 AM 12.2 °F - 10.4 °F 92% 30.05 in 1.2 mi Calm Calm - N/A   Clear
6:56 AM 12.0 °F - 10.0 °F 92% 30.10 in 5.0 mi Calm Calm - N/A   Clear
7:56 AM 12.0 °F - 12.0 °F 100% 30.08 in 8.0 mi Calm Calm - N/A   Mostly Cloudy
8:56 AM 21.0 °F - 19.0 °F 92% 30.08 in 8.0 mi Calm Calm - N/A   Clear
9:56 AM 28.9 °F 21.9 °F 21.9 °F 75% 30.06 in 10.0 mi SSE 6.9 mph - N/A   Clear
10:56 AM 32.0 °F 23.6 °F 24.1 °F 73% 30.01 in 10.0 mi SSE 10.4 mph - N/A   Clear
11:56 AM 33.1 °F 26.9 °F 24.1 °F 70% 30.01 in 10.0 mi South 6.9 mph - N/A   Partly Cloudy
12:56 PM 32.0 °F 24.2 °F 26.1 °F 79% 29.94 in 10.0 mi East 9.2 mph - N/A   Partly Cloudy
1:56 PM 32.0 °F 25.6 °F 26.1 °F 79% 29.89 in 10.0 mi NE 6.9 mph - N/A   Overcast
2:38 PM 32.0 °F 28.7 °F 26.6 °F 80% 29.84 in 6.0 mi NE 3.5 mph - 0.00 in Snow Light Snow
2:48 PM 30.2 °F 24.3 °F 26.6 °F 86% 29.82 in 1.8 mi NE 5.8 mph - 0.00 in Snow Light Snow
2:56 PM 30.9 °F 23.5 °F 27.0 °F 85% 29.86 in 0.8 mi NE 8.1 mph - 0.01 in Snow Light Snow
3:11 PM 30.2 °F 24.3 °F 28.4 °F 93% 29.80 in 0.2 mi NE 5.8 mph - 0.03 in Fog , Snow Heavy Snow
3:25 PM 30.2 °F 24.3 °F 28.4 °F 93% 29.78 in 0.8 mi ENE 5.8 mph - 0.07 in Snow Light Snow
3:29 PM 30.2 °F 22.6 °F 28.4 °F 93% 29.77 in 1.0 mi NE 8.1 mph - 0.08 in Snow Light Snow
3:42 PM 30.2 °F 25.4 °F 30.2 °F 100% 29.77 in 3.0 mi NNE 4.6 mph - 0.10 in   Overcast
3:49 PM 30.2 °F 25.4 °F 30.2 °F 100% 29.76 in 3.0 mi NE 4.6 mph - 0.11 in   Overcast
3:56 PM 30.9 °F 25.2 °F 30.0 °F 96% 29.80 in 3.0 mi ENE 5.8 mph - 0.12 in   Overcast
4:54 PM 32.0 °F 27.5 °F 30.2 °F 93% 29.73 in 2.0 mi ENE 4.6 mph - 0.02 in   Overcast
4:56 PM 32.0 °F 27.5 °F 30.9 °F 96% 29.78 in 2.0 mi ENE 4.6 mph - 0.02 in   Overcast
5:03 PM 32.0 °F 26.4 °F 30.2 °F 93% 29.72 in 3.0 mi NE 5.8 mph - N/A   Overcast
5:56 PM 32.0 °F 28.7 °F 30.9 °F 96% 29.78 in 2.0 mi NNW 3.5 mph - N/A   Overcast
6:03 PM 32.0 °F 27.5 °F 30.2 °F 93% 29.72 in 5.0 mi NNW 4.6 mph - N/A   Overcast
6:56 PM 32.0 °F 25.6 °F 30.9 °F 96% 29.77 in 3.0 mi NW 6.9 mph - N/A   Overcast
7:05 PM 32.0 °F 26.4 °F 30.2 °F 93% 29.72 in 2.0 mi NW 5.8 mph - N/A   Overcast
7:56 PM 30.9 °F 25.2 °F 30.9 °F 100% 29.79 in 2.0 mi NW 5.8 mph - N/A   Overcast
8:44 PM 30.2 °F 22.6 °F 30.2 °F 100% 29.74 in 3.0 mi NW 8.1 mph - 0.00 in Rain Light Freezing Rain
8:56 PM 30.9 °F 22.8 °F 30.0 °F 96% 29.79 in 2.0 mi NW 9.2 mph - 0.00 in Rain Light Freezing Rain
9:03 PM 30.2 °F 21.3 °F 30.2 °F 100% 29.75 in 4.0 mi NW 10.4 mph - 0.00 in Rain Light Freezing Rain
9:26 PM 30.2 °F 23.4 °F 30.2 °F 100% 29.76 in 5.0 mi West 6.9 mph - 0.00 in   Overcast
9:52 PM 30.2 °F 23.4 °F 30.2 °F 100% 29.77 in 2.0 mi WNW 6.9 mph - 0.00 in   Overcast
9:56 PM 30.9 °F 23.5 °F 30.0 °F 96% 29.83 in 2.0 mi WNW 8.1 mph - 0.00 in   Overcast
10:03 PM 30.2 °F 22.6 °F 30.2 °F 100% 29.77 in 6.0 mi WNW 8.1 mph - N/A   Overcast
10:56 PM 30.9 °F 25.2 °F 30.0 °F 96% 29.83 in 6.0 mi WNW 5.8 mph - N/A   Overcast
11:20 PM 30.2 °F 25.4 °F 30.2 °F 100% 29.80 in 7.0 mi West 4.6 mph - N/A   Overcast
11:56 PM 30.0 °F - 28.9 °F 96% 29.86 in 6.0 mi Calm Calm - N/A   Mostly Cloudy